Погода в Газ-Сале

Россия / Ямало-Ненецкий автономный округ     67°21′50″N   79°00′14″E
темп.,
°C
ветер,
м/с
пор.,
м/с
влажн.,
%
обл.,
%
осадки,
мм/ч
давл.,
гПа
погр.,
м
8 августа, пн
пн823:00+15зюз4794100 0.0 101297
02:00+15з33910 0.0 101223
05:00+17зюз34880 0.0 101293
08:00+22зюз466926 0.0 1012318
11:00+27з67480 0.0 10111220
14:00+29зсз56400 0.0 10112163
17:00+28сз46420 0.0 10111718
20:00+23юз11570 0.0 101111
9 августа, вт
вт923:00+20юз33620 0.0 101116
02:00+19юз45706 0.0 101147
05:00+18зсз48735 0.0 1011227
08:00+19с676337 0.0 1012554
11:00+15ссз996981 0.0 1014517
14:00+13ссз5774100 0.4 1015398
17:00+15сз575959 0.5 1015496
20:00+14зсз226755 0.0 101618
10 августа, ср
ср1023:00+10сз498284 0.0 1017171
02:00+8сз48845 0.0 1017119
05:00+9сз49765 0.0 1018349
08:00+13сз57526 0.0 10181101
11:00+13зсз6753100 0.0 10181250
14:00+14сз7851100 0.1 10181536
17:00+13сз7963100 0.1 10191094
20:00+10сз487992 0.0 1019522
11 августа, чт
чт1123:00+9зсз3784100 0.1 1019223
02:00+8сз3687100 0.1 1019181
05:00+9сз3581100 0.1 1019239
08:00+11сз456399 0.0 1020561
11:00+12сз455269 0.0 10201037
14:00+14ссз454317 0.0 10191652
17:00+14с344621 0.0 10181231
20:00+10вюв1159100 0.0 101810
12 августа, пт
пт1223:00+9ю336428 0.0 101734
02:00+7ю45676 0.0 101664
05:00+9ю37675 0.0 1015163
08:00+15ю674758 0.0 1014680
11:00+17ю66428 0.0 10121674
14:00+18ю6642100 0.0 10111904
17:00+17ю4646100 0.0 1010601
20:00+14ююв4851100 0.0 1009226